QPF
0.05 0.06 0.07 0.09 0.11 0.21 0.28 0.27 0.23 0.21 0.22 0.27 0.30 0.30 0.29 0.28 0.24 0.22 0.20 0.15 0.11 0.09 0.10 0.06 0.05 0.03 0.03 0.03 0.02 0.02 0.02 0.03 0.03 0.03 0.02 0.02 0.02 0.02 0.02 0.02 0.01 0.01 0.01
0.07 0.07 0.09 0.08 0.08 0.12 0.15 0.17 0.18 0.24 0.31 0.38 0.44 0.41 0.43 0.44 0.35 0.25 0.23 0.20 0.14 0.10 0.10 0.08 0.05 0.04 0.03 0.03 0.03 0.03 0.03 0.03 0.02 0.02 0.02 0.01 0.01 0.01 0.01 0.01 0.02 0.02 0.03
0.05 0.05 0.06 0.08 0.09 0.15 0.17 0.16 0.22 0.29 0.36 0.38 0.40 0.35 0.32 0.35 0.33 0.23 0.15 0.12 0.10 0.08 0.07 0.07 0.05 0.04 0.03 0.02 0.02 0.03 0.03 0.03 0.02 0.01 0.01 0.00 0.00 0.01 0.00 0.00 0.01 0.01 0.02
0.03 0.04 0.05 0.07 0.11 0.18 0.28 0.27 0.29 0.29 0.30 0.28 0.22 0.16 0.11 0.10 0.12 0.14 0.13 0.12 0.11 0.08 0.07 0.07 0.06 0.06 0.04 0.03 0.03 0.02 0.02 0.02 0.02 0.01 0.00 0.00 0.00 0.00 0.00 0.00 0.00 0.01 0.01
0.02 0.03 0.07 0.13 0.14 0.13 0.21 0.23 0.27 0.36 0.37 0.29 0.20 0.14 0.07 0.06 0.07 0.12 0.13 0.12 0.09 0.07 0.08 0.07 0.06 0.05 0.03 0.03 0.02 0.01 0.01 0.01 0.01 0.01 0.00 0.00 0.00 0.00 0.00 0.00 0.00 0.00 0.00
0.02 0.04 0.07 0.11 0.12 0.11 0.18 0.22 0.28 0.35 0.37 0.27 0.19 0.13 0.09 0.08 0.07 0.07 0.08 0.08 0.07 0.07 0.07 0.05 0.04 0.04 0.04 0.03 0.02 0.01 0.01 0.01 0.01 0.00 0.00 0.00 0.00 0.00 0.00 0.00 0.00 0.00 0.00
0.02 0.03 0.06 0.08 0.12 0.14 0.15 0.17 0.19 0.18 0.23 0.23 0.17 0.12 0.09 0.10 0.08 0.06 0.06 0.05 0.05 0.05 0.08 0.08 0.05 0.05 0.05 0.04 0.03 0.02 0.01 0.01 0.01 0.01 0.00 0.00 0.00 0.00 0.00 0.00 0.00 0.00 0.00
0.03 0.04 0.07 0.12 0.11 0.10 0.10 0.12 0.13 0.11 0.11 0.13 0.13 0.12 0.09 0.09 0.10 0.09 0.08 0.06 0.05 0.04 0.05 0.09 0.08 0.06 0.05 0.03 0.03 0.03 0.02 0.01 0.01 0.01 0.01 0.00 0.00 0.00 0.00 0.00 0.00 0.00 0.00
0.02 0.05 0.07 0.11 0.10 0.09 0.08 0.08 0.08 0.08 0.09 0.11 0.13 0.14 0.10 0.08 0.08 0.08 0.08 0.07 0.07 0.06 0.06 0.07 0.06 0.06 0.04 0.03 0.02 0.02 0.02 0.01 0.01 0.01 0.01 0.01 0.00 0.00 0.00 0.00 0.00 0.00 0.01
0.03 0.04 0.05 0.06 0.06 0.06 0.05 0.04 0.05 0.06 0.07 0.11 0.14 0.12 0.10 0.09 0.08 0.06 0.05 0.06 0.06 0.06 0.05 0.06 0.05 0.05 0.04 0.03 0.03 0.03 0.02 0.02 0.02 0.01 0.01 0.01 0.00 0.00 0.00 0.00 0.00 0.00 0.01
0.01 0.03 0.03 0.03 0.04 0.04 0.03 0.02 0.02 0.03 0.04 0.07 0.13 0.15 0.13 0.11 0.10 0.08 0.06 0.05 0.04 0.03 0.04 0.05 0.05 0.06 0.05 0.05 0.05 0.04 0.04 0.03 0.03 0.03 0.02 0.01 0.00 0.01 0.00 0.00 0.00 0.01 0.01
0.02 0.02 0.02 0.03 0.03 0.03 0.02 0.02 0.02 0.02 0.03 0.04 0.08 0.13 0.13 0.12 0.12 0.09 0.07 0.07 0.05 0.05 0.04 0.04 0.04 0.05 0.07 0.07 0.06 0.05 0.06 0.05 0.04 0.03 0.03 0.02 0.02 0.02 0.02 0.02 0.01 0.01 0.01
0.04 0.03 0.02 0.02 0.03 0.03 0.03 0.02 0.02 0.02 0.02 0.03 0.06 0.09 0.11 0.11 0.13 0.13 0.09 0.07 0.06 0.06 0.06 0.06 0.06 0.07 0.07 0.08 0.07 0.07 0.06 0.06 0.05 0.03 0.03 0.03 0.04 0.03 0.03 0.02 0.02 0.02 0.02
0.04 0.03 0.02 0.03 0.03 0.02 0.02 0.01 0.01 0.01 0.01 0.02 0.04 0.07 0.09 0.11 0.11 0.13 0.11 0.09 0.08 0.07 0.06 0.08 0.10 0.10 0.09 0.09 0.10 0.12 0.11 0.11 0.10 0.08 0.06 0.05 0.04 0.04 0.04 0.04 0.03 0.03 0.02
0.02 0.02 0.01 0.03 0.03 0.03 0.03 0.01 0.01 0.01 0.01 0.02 0.02 0.05 0.09 0.13 0.12 0.11 0.10 0.11 0.11 0.09 0.08 0.09 0.10 0.11 0.11 0.11 0.11 0.13 0.17 0.17 0.14 0.11 0.08 0.06 0.06 0.06 0.07 0.06 0.05 0.04 0.04
0.02 0.02 0.02 0.03 0.05 0.03 0.04 0.02 0.02 0.02 0.01 0.01 0.03 0.04 0.07 0.11 0.11 0.11 0.11 0.12 0.12 0.11 0.11 0.10 0.12 0.12 0.10 0.11 0.12 0.13 0.13 0.13 0.11 0.08 0.07 0.07 0.06 0.06 0.08 0.09 0.09 0.08 0.08
0.02 0.02 0.02 0.04 0.07 0.06 0.05 0.03 0.03 0.03 0.03 0.02 0.03 0.03 0.07 0.12 0.12 0.11 0.10 0.10 0.10 0.10 0.13 0.13 0.13 0.12 0.12 0.12 0.13 0.15 0.13 0.11 0.09 0.08 0.07 0.07 0.06 0.07 0.08 0.10 0.12 0.11 0.11
0.02 0.03 0.04 0.05 0.08 0.10 0.09 0.09 0.06 0.04 0.04 0.03 0.03 0.03 0.04 0.07 0.08 0.08 0.09 0.11 0.12 0.12 0.11 0.12 0.11 0.11 0.11 0.11 0.11 0.11 0.11 0.11 0.09 0.08 0.07 0.06 0.06 0.07 0.08 0.10 0.10 0.09 0.08
0.03 0.05 0.09 0.08 0.11 0.14 0.14 0.12 0.12 0.09 0.06 0.05 0.03 0.03 0.04 0.06 0.07 0.08 0.10 0.12 0.13 0.12 0.12 0.10 0.10 0.11 0.12 0.11 0.09 0.09 0.10 0.11 0.10 0.09 0.08 0.08 0.08 0.08 0.07 0.06 0.05 0.06 0.05
0.03 0.05 0.08 0.10 0.11 0.11 0.10 0.10 0.11 0.12 0.11 0.07 0.05 0.04 0.05 0.06 0.07 0.08 0.10 0.12 0.13 0.14 0.14 0.13 0.12 0.11 0.11 0.11 0.11 0.11 0.10 0.10 0.10 0.10 0.09 0.09 0.08 0.06 0.05 0.04 0.04 0.05 0.05
0.02 0.03 0.05 0.05 0.07 0.10 0.12 0.12 0.09 0.09 0.11 0.10 0.07 0.07 0.08 0.08 0.10 0.10 0.11 0.13 0.12 0.10 0.11 0.12 0.12 0.11 0.09 0.10 0.11 0.11 0.11 0.11 0.10 0.08 0.06 0.05 0.05 0.05 0.06 0.05 0.05 0.05 0.05
0.02 0.02 0.03 0.04 0.06 0.09 0.13 0.16 0.14 0.13 0.13 0.12 0.09 0.09 0.09 0.09 0.11 0.10 0.09 0.09 0.08 0.08 0.08 0.09 0.09 0.09 0.08 0.09 0.11 0.12 0.12 0.11 0.09 0.06 0.04 0.04 0.04 0.04 0.03 0.03 0.03 0.04 0.03
0.03 0.03 0.04 0.05 0.07 0.10 0.14 0.19 0.18 0.15 0.14 0.15 0.16 0.15 0.16 0.14 0.13 0.13 0.12 0.12 0.11 0.09 0.09 0.09 0.09 0.10 0.10 0.09 0.09 0.09 0.09 0.09 0.08 0.06 0.05 0.05 0.05 0.04 0.03 0.02 0.02 0.02 0.02
0.06 0.08 0.07 0.07 0.10 0.12 0.17 0.18 0.17 0.15 0.16 0.15 0.16 0.19 0.21 0.20 0.16 0.14 0.14 0.15 0.15 0.14 0.13 0.13 0.12 0.11 0.09 0.07 0.06 0.06 0.07 0.07 0.06 0.05 0.05 0.05 0.04 0.04 0.03 0.03 0.02 0.02 0.02
0.06 0.11 0.10 0.09 0.11 0.13 0.14 0.13 0.15 0.16 0.19 0.18 0.15 0.13 0.14 0.12 0.13 0.12 0.11 0.12 0.13 0.13 0.12 0.12 0.11 0.10 0.08 0.07 0.06 0.05 0.05 0.07 0.07 0.07 0.07 0.06 0.05 0.05 0.04 0.04 0.04 0.03 0.03
0.04 0.06 0.06 0.06 0.08 0.11 0.14 0.14 0.13 0.14 0.14 0.15 0.13 0.11 0.10 0.08 0.07 0.07 0.07 0.07 0.08 0.08 0.08 0.10 0.12 0.12 0.09 0.08 0.06 0.06 0.06 0.06 0.06 0.05 0.06 0.06 0.05 0.05 0.04 0.03 0.03 0.02 0.02
MSLP
1008.26 1008.37 1008.54 1008.79 1009.14 1009.61 1010.20 1010.90 1011.68 1012.48 1013.25 1013.91 1014.43 1014.78 1014.97 1015.04 1015.05 1015.06 1015.14 1015.32 1015.63 1016.06 1016.57 1017.12 1017.66 1018.14 1018.56 1018.91 1019.21 1019.49 1019.76 1020.06 1020.38 1020.71 1021.03 1021.31 1021.51 1021.61 1021.60 1021.52 1021.37 1021.21 1021.08
1008.38 1008.43 1008.53 1008.69 1008.95 1009.33 1009.85 1010.50 1011.27 1012.10 1012.92 1013.65 1014.24 1014.65 1014.88 1014.95 1014.93 1014.89 1014.90 1015.04 1015.31 1015.73 1016.26 1016.86 1017.46 1018.01 1018.48 1018.87 1019.19 1019.46 1019.72 1019.99 1020.30 1020.63 1020.96 1021.26 1021.48 1021.61 1021.63 1021.55 1021.41 1021.22 1021.05
1008.44 1008.43 1008.47 1008.57 1008.74 1009.03 1009.47 1010.06 1010.80 1011.62 1012.47 1013.26 1013.92 1014.40 1014.68 1014.77 1014.76 1014.70 1014.69 1014.78 1015.03 1015.44 1015.97 1016.59 1017.22 1017.81 1018.32 1018.74 1019.06 1019.33 1019.58 1019.85 1020.15 1020.48 1020.82 1021.14 1021.40 1021.56 1021.61 1021.55 1021.40 1021.20 1020.99
1008.39 1008.35 1008.36 1008.40 1008.51 1008.72 1009.08 1009.60 1010.29 1011.09 1011.94 1012.76 1013.47 1014.01 1014.36 1014.51 1014.53 1014.49 1014.47 1014.55 1014.78 1015.17 1015.70 1016.32 1016.96 1017.57 1018.09 1018.52 1018.86 1019.14 1019.39 1019.66 1019.96 1020.30 1020.66 1021.00 1021.29 1021.48 1021.55 1021.51 1021.36 1021.15 1020.91
1008.25 1008.21 1008.19 1008.21 1008.29 1008.44 1008.73 1009.17 1009.79 1010.54 1011.37 1012.19 1012.93 1013.52 1013.93 1014.14 1014.22 1014.22 1014.23 1014.32 1014.55 1014.92 1015.43 1016.03 1016.67 1017.27 1017.81 1018.25 1018.60 1018.89 1019.16 1019.44 1019.76 1020.11 1020.49 1020.85 1021.16 1021.38 1021.47 1021.44 1021.30 1021.07 1020.81
1008.04 1008.01 1008.01 1008.04 1008.10 1008.22 1008.45 1008.81 1009.35 1010.02 1010.79 1011.58 1012.32 1012.94 1013.40 1013.68 1013.82 1013.89 1013.94 1014.06 1014.29 1014.66 1015.15 1015.73 1016.34 1016.93 1017.46 1017.91 1018.28 1018.60 1018.90 1019.20 1019.54 1019.92 1020.31 1020.69 1021.01 1021.25 1021.36 1021.34 1021.20 1020.97 1020.69
1007.78 1007.79 1007.85 1007.91 1007.98 1008.08 1008.26 1008.55 1008.99 1009.56 1010.25 1010.97 1011.68 1012.29 1012.78 1013.12 1013.34 1013.47 1013.59 1013.74 1013.99 1014.36 1014.83 1015.38 1015.96 1016.53 1017.06 1017.52 1017.91 1018.26 1018.59 1018.93 1019.29 1019.69 1020.10 1020.49 1020.82 1021.07 1021.19 1021.18 1021.06 1020.83 1020.55
1007.53 1007.60 1007.72 1007.83 1007.92 1008.02 1008.16 1008.38 1008.72 1009.18 1009.75 1010.39 1011.03 1011.61 1012.11 1012.49 1012.76 1012.96 1013.14 1013.35 1013.62 1013.99 1014.45 1014.98 1015.54 1016.09 1016.61 1017.08 1017.49 1017.87 1018.23 1018.61 1019.00 1019.41 1019.83 1020.22 1020.55 1020.80 1020.94 1020.95 1020.85 1020.65 1020.39
1007.33 1007.46 1007.64 1007.80 1007.93 1008.02 1008.13 1008.28 1008.52 1008.87 1009.32 1009.84 1010.39 1010.93 1011.40 1011.80 1012.11 1012.37 1012.61 1012.87 1013.18 1013.56 1014.02 1014.53 1015.07 1015.61 1016.13 1016.60 1017.04 1017.44 1017.83 1018.23 1018.63 1019.05 1019.47 1019.85 1020.19 1020.44 1020.59 1020.63 1020.56 1020.41 1020.19
1007.22 1007.39 1007.61 1007.81 1007.96 1008.05 1008.13 1008.22 1008.37 1008.60 1008.93 1009.34 1009.79 1010.25 1010.69 1011.08 1011.42 1011.73 1012.02 1012.33 1012.68 1013.09 1013.55 1014.06 1014.59 1015.13 1015.64 1016.12 1016.57 1016.99 1017.39 1017.80 1018.21 1018.62 1019.02 1019.40 1019.72 1019.97 1020.13 1020.20 1020.18 1020.09 1019.93
1007.21 1007.41 1007.64 1007.84 1007.99 1008.07 1008.12 1008.15 1008.23 1008.37 1008.59 1008.89 1009.24 1009.63 1010.01 1010.38 1010.73 1011.06 1011.40 1011.75 1012.15 1012.58 1013.07 1013.59 1014.13 1014.66 1015.18 1015.66 1016.12 1016.54 1016.95 1017.36 1017.75 1018.14 1018.51 1018.86 1019.16 1019.40 1019.57 1019.68 1019.71 1019.67 1019.58
1007.34 1007.51 1007.71 1007.88 1008.00 1008.05 1008.06 1008.05 1008.08 1008.15 1008.29 1008.50 1008.77 1009.08 1009.41 1009.74 1010.08 1010.43 1010.79 1011.19 1011.62 1012.10 1012.62 1013.16 1013.72 1014.26 1014.78 1015.27 1015.73 1016.15 1016.55 1016.93 1017.29 1017.65 1017.98 1018.28 1018.55 1018.78 1018.95 1019.07 1019.14 1019.16 1019.14
1007.60 1007.70 1007.82 1007.91 1007.97 1007.97 1007.95 1007.92 1007.90 1007.94 1008.03 1008.17 1008.38 1008.62 1008.90 1009.20 1009.52 1009.87 1010.25 1010.68 1011.15 1011.68 1012.23 1012.81 1013.39 1013.96 1014.49 1014.98 1015.43 1015.84 1016.21 1016.55 1016.88 1017.18 1017.46 1017.71 1017.94 1018.13 1018.29 1018.42 1018.51 1018.57 1018.59
1007.99 1007.97 1007.97 1007.95 1007.92 1007.86 1007.80 1007.75 1007.73 1007.75 1007.81 1007.93 1008.09 1008.28 1008.51 1008.77 1009.07 1009.41 1009.81 1010.26 1010.77 1011.34 1011.94 1012.56 1013.17 1013.76 1014.31 1014.80 1015.24 1015.62 1015.96 1016.26 1016.53 1016.77 1016.99 1017.19 1017.37 1017.52 1017.65 1017.76 1017.85 1017.92 1017.97
1008.47 1008.31 1008.15 1008.00 1007.86 1007.74 1007.64 1007.58 1007.57 1007.60 1007.67 1007.77 1007.91 1008.07 1008.25 1008.48 1008.75 1009.08 1009.48 1009.95 1010.50 1011.10 1011.75 1012.41 1013.06 1013.67 1014.22 1014.71 1015.13 1015.49 1015.79 1016.05 1016.26 1016.45 1016.61 1016.76 1016.88 1016.98 1017.07 1017.15 1017.22 1017.27 1017.31
1009.01 1008.69 1008.38 1008.09 1007.84 1007.65 1007.52 1007.46 1007.46 1007.51 1007.60 1007.71 1007.83 1007.97 1008.13 1008.33 1008.57 1008.89 1009.28 1009.77 1010.34 1010.98 1011.67 1012.36 1013.04 1013.66 1014.22 1014.70 1015.10 1015.43 1015.69 1015.90 1016.07 1016.21 1016.33 1016.42 1016.50 1016.56 1016.61 1016.64 1016.67 1016.69 1016.70
1009.56 1009.09 1008.64 1008.22 1007.87 1007.61 1007.46 1007.40 1007.42 1007.50 1007.61 1007.74 1007.86 1007.99 1008.13 1008.29 1008.52 1008.82 1009.22 1009.71 1010.31 1010.97 1011.68 1012.40 1013.09 1013.72 1014.28 1014.74 1015.12 1015.41 1015.64 1015.81 1015.94 1016.05 1016.13 1016.20 1016.25 1016.28 1016.29 1016.28 1016.26 1016.24 1016.20
1010.06 1009.49 1008.92 1008.40 1007.97 1007.67 1007.49 1007.43 1007.47 1007.57 1007.71 1007.84 1007.97 1008.09 1008.21 1008.37 1008.58 1008.87 1009.27 1009.78 1010.38 1011.07 1011.79 1012.52 1013.21 1013.83 1014.37 1014.81 1015.15 1015.41 1015.61 1015.75 1015.87 1015.96 1016.04 1016.10 1016.14 1016.16 1016.15 1016.12 1016.06 1015.99 1015.91
1010.49 1009.85 1009.21 1008.63 1008.15 1007.81 1007.62 1007.56 1007.61 1007.72 1007.86 1008.01 1008.14 1008.25 1008.37 1008.52 1008.73 1009.03 1009.44 1009.96 1010.57 1011.27 1011.99 1012.71 1013.39 1013.99 1014.49 1014.89 1015.20 1015.43 1015.60 1015.73 1015.85 1015.95 1016.04 1016.12 1016.18 1016.22 1016.21 1016.17 1016.09 1015.98 1015.86
1010.84 1010.18 1009.52 1008.90 1008.41 1008.05 1007.84 1007.77 1007.81 1007.93 1008.07 1008.21 1008.34 1008.46 1008.58 1008.74 1008.97 1009.29 1009.71 1010.25 1010.88 1011.57 1012.29 1012.99 1013.64 1014.20 1014.66 1015.02 1015.29 1015.48 1015.64 1015.77 1015.89 1016.01 1016.14 1016.26 1016.37 1016.43 1016.46 1016.43 1016.34 1016.21 1016.05
1011.13 1010.49 1009.84 1009.23 1008.73 1008.37 1008.15 1008.06 1008.08 1008.18 1008.30 1008.44 1008.56 1008.69 1008.83 1009.02 1009.27 1009.63 1010.08 1010.64 1011.29 1011.98 1012.69 1013.36 1013.97 1014.48 1014.89 1015.21 1015.44 1015.61 1015.74 1015.87 1016.02 1016.18 1016.35 1016.52 1016.68 1016.80 1016.86 1016.85 1016.78 1016.65 1016.46
1011.40 1010.82 1010.20 1009.62 1009.13 1008.76 1008.53 1008.42 1008.41 1008.47 1008.57 1008.69 1008.81 1008.96 1009.13 1009.35 1009.65 1010.05 1010.55 1011.14 1011.80 1012.50 1013.19 1013.83 1014.40 1014.86 1015.22 1015.49 1015.68 1015.83 1015.96 1016.09 1016.26 1016.45 1016.67 1016.89 1017.10 1017.27 1017.37 1017.40 1017.34 1017.21 1017.02
1011.70 1011.19 1010.63 1010.09 1009.61 1009.24 1008.98 1008.84 1008.79 1008.81 1008.88 1008.98 1009.11 1009.27 1009.48 1009.75 1010.11 1010.57 1011.12 1011.74 1012.42 1013.12 1013.79 1014.41 1014.93 1015.35 1015.66 1015.89 1016.05 1016.17 1016.30 1016.44 1016.62 1016.85 1017.10 1017.36 1017.61 1017.81 1017.95 1018.00 1017.96 1017.84 1017.63
1012.09 1011.64 1011.14 1010.64 1010.18 1009.80 1009.52 1009.34 1009.24 1009.22 1009.26 1009.34 1009.47 1009.66 1009.90 1010.23 1010.65 1011.17 1011.77 1012.43 1013.13 1013.82 1014.48 1015.06 1015.55 1015.93 1016.21 1016.41 1016.55 1016.66 1016.78 1016.93 1017.13 1017.36 1017.63 1017.91 1018.18 1018.40 1018.55 1018.61 1018.58 1018.45 1018.23
1012.58 1012.20 1011.74 1011.27 1010.83 1010.45 1010.14 1009.92 1009.78 1009.72 1009.73 1009.79 1009.93 1010.14 1010.43 1010.82 1011.29 1011.86 1012.50 1013.19 1013.90 1014.59 1015.23 1015.79 1016.25 1016.60 1016.85 1017.03 1017.16 1017.28 1017.40 1017.55 1017.75 1017.99 1018.25 1018.53 1018.78 1019.00 1019.14 1019.19 1019.14 1019.00 1018.77
1013.18 1012.85 1012.44 1012.00 1011.57 1011.18 1010.85 1010.60 1010.42 1010.33 1010.31 1010.37 1010.51 1010.75 1011.08 1011.51 1012.03 1012.64 1013.31 1014.01 1014.72 1015.41 1016.03 1016.56 1016.99 1017.33 1017.57 1017.75 1017.88 1018.00 1018.13 1018.29 1018.48 1018.70 1018.95 1019.19 1019.42 1019.59 1019.70 1019.72 1019.65 1019.49 1019.24
Thickness
5789 5787 5783 5778 5773 5768 5763 5758 5755 5752 5749 5744 5740 5737 5736 5736 5736 5736 5736 5735 5735 5734 5733 5733 5732 5732 5732 5732 5730 5729 5727 5726 5725 5723 5721 5722 5724 5724 5724 5724 5723 5723 5722
5785 5785 5783 5779 5774 5769 5763 5758 5755 5752 5749 5745 5741 5738 5736 5734 5734 5735 5735 5736 5735 5734 5734 5733 5732 5732 5731 5730 5729 5728 5726 5725 5725 5722 5717 5715 5717 5722 5725 5724 5724 5723 5722
5783 5782 5779 5776 5773 5768 5764 5760 5755 5751 5747 5744 5739 5736 5733 5732 5730 5732 5733 5735 5735 5735 5734 5733 5732 5732 5731 5730 5729 5729 5727 5724 5723 5724 5720 5714 5711 5716 5721 5723 5723 5723 5723
5784 5780 5777 5774 5770 5768 5765 5760 5755 5749 5746 5744 5739 5735 5733 5732 5733 5734 5734 5734 5734 5734 5734 5733 5733 5732 5731 5730 5730 5729 5728 5726 5722 5722 5722 5721 5720 5715 5714 5719 5722 5723 5723
5782 5779 5777 5774 5771 5767 5762 5758 5753 5747 5745 5743 5741 5737 5735 5735 5735 5734 5732 5732 5732 5733 5733 5733 5733 5732 5731 5731 5730 5729 5728 5727 5725 5723 5721 5719 5718 5717 5715 5714 5717 5720 5723
5779 5777 5775 5772 5768 5764 5760 5755 5750 5746 5744 5742 5741 5738 5735 5734 5733 5732 5731 5730 5731 5732 5732 5732 5732 5731 5731 5730 5730 5729 5728 5727 5726 5725 5724 5722 5719 5717 5716 5714 5714 5716 5721
5776 5773 5770 5767 5764 5759 5757 5753 5748 5745 5743 5741 5740 5739 5737 5734 5733 5733 5731 5730 5729 5730 5731 5731 5731 5730 5730 5730 5729 5728 5728 5727 5726 5725 5724 5723 5723 5721 5719 5716 5714 5714 5717
5773 5771 5769 5766 5762 5758 5755 5751 5748 5745 5744 5742 5740 5739 5738 5735 5734 5733 5732 5731 5730 5731 5731 5731 5730 5729 5729 5729 5728 5727 5726 5725 5725 5725 5724 5723 5722 5722 5721 5718 5714 5712 5713
5772 5769 5767 5764 5761 5758 5755 5753 5749 5746 5744 5743 5741 5738 5737 5735 5734 5733 5732 5731 5731 5730 5730 5729 5729 5728 5727 5727 5726 5725 5725 5724 5723 5723 5723 5722 5722 5721 5721 5720 5718 5714 5709
5769 5768 5766 5764 5762 5759 5756 5753 5750 5747 5745 5743 5741 5739 5737 5735 5734 5732 5731 5730 5730 5729 5728 5728 5727 5727 5726 5725 5724 5724 5723 5722 5721 5721 5720 5720 5721 5720 5719 5718 5717 5716 5713
5767 5766 5765 5764 5762 5759 5756 5753 5750 5747 5745 5743 5741 5739 5736 5734 5733 5730 5730 5729 5729 5728 5728 5727 5726 5725 5724 5723 5722 5721 5720 5720 5719 5719 5719 5719 5719 5718 5717 5716 5715 5713 5712
5765 5765 5764 5762 5759 5756 5754 5752 5749 5746 5744 5742 5740 5738 5736 5734 5731 5729 5729 5729 5728 5728 5727 5726 5725 5724 5723 5722 5720 5719 5719 5718 5717 5717 5716 5716 5716 5715 5714 5713 5712 5711 5710
5762 5762 5760 5758 5756 5754 5753 5751 5748 5745 5743 5741 5738 5736 5733 5732 5730 5728 5728 5728 5728 5727 5726 5724 5722 5722 5721 5720 5720 5719 5718 5716 5716 5715 5714 5713 5712 5711 5711 5710 5709 5708 5708
5760 5759 5757 5756 5755 5753 5751 5749 5747 5745 5742 5739 5736 5733 5732 5730 5729 5728 5727 5727 5726 5725 5723 5722 5720 5720 5719 5718 5717 5716 5715 5714 5713 5713 5712 5711 5710 5709 5708 5707 5706 5704 5702
5756 5756 5756 5754 5753 5751 5749 5747 5745 5743 5740 5737 5734 5731 5730 5729 5727 5725 5725 5724 5723 5722 5720 5719 5717 5716 5715 5714 5714 5713 5712 5711 5709 5709 5708 5708 5707 5706 5705 5703 5702 5700 5697
5752 5752 5752 5752 5750 5749 5747 5745 5742 5740 5738 5734 5732 5730 5728 5726 5724 5722 5721 5720 5719 5718 5716 5714 5713 5712 5712 5711 5711 5710 5708 5707 5705 5704 5704 5703 5702 5701 5700 5698 5697 5695 5692
5748 5748 5748 5748 5747 5745 5744 5741 5739 5737 5734 5731 5729 5728 5726 5723 5720 5719 5716 5715 5713 5712 5710 5709 5708 5706 5706 5706 5705 5704 5703 5702 5701 5699 5698 5697 5697 5695 5693 5692 5690 5688 5685
5742 5743 5744 5744 5744 5743 5741 5738 5736 5734 5731 5728 5726 5724 5722 5720 5717 5714 5712 5709 5707 5705 5704 5703 5702 5700 5699 5699 5699 5698 5698 5696 5695 5694 5692 5690 5688 5687 5686 5684 5681 5679 5676
5736 5737 5739 5740 5740 5738 5736 5734 5731 5729 5727 5724 5722 5720 5718 5715 5712 5709 5707 5704 5701 5699 5697 5696 5695 5693 5693 5693 5693 5692 5691 5689 5688 5686 5683 5682 5680 5678 5677 5675 5672 5669 5666
5730 5731 5733 5734 5733 5732 5731 5728 5725 5723 5721 5720 5718 5717 5714 5711 5708 5705 5702 5699 5697 5694 5691 5689 5688 5686 5685 5685 5685 5685 5684 5681 5678 5675 5673 5671 5669 5668 5666 5664 5662 5659 5656
5722 5724 5724 5724 5723 5724 5724 5721 5718 5716 5715 5714 5712 5710 5708 5705 5702 5699 5696 5694 5691 5689 5685 5681 5679 5678 5677 5676 5676 5676 5675 5672 5669 5665 5662 5660 5658 5657 5655 5653 5650 5647 5644
5712 5713 5713 5713 5714 5716 5716 5713 5710 5709 5709 5707 5704 5702 5699 5698 5695 5692 5689 5686 5684 5681 5677 5673 5669 5668 5667 5666 5665 5665 5664 5662 5659 5654 5651 5649 5647 5645 5643 5640 5637 5634 5631
5700 5702 5703 5703 5703 5704 5705 5702 5700 5701 5700 5697 5694 5692 5689 5686 5685 5683 5680 5677 5675 5673 5668 5664 5660 5656 5655 5654 5653 5652 5651 5649 5646 5642 5640 5637 5635 5633 5629 5626 5623 5621 5618
5689 5691 5692 5691 5690 5691 5692 5692 5691 5691 5689 5686 5683 5681 5678 5675 5673 5671 5670 5667 5664 5661 5658 5654 5650 5646 5643 5642 5640 5639 5637 5635 5632 5629 5626 5624 5621 5618 5615 5611 5608 5605 5602
5677 5679 5679 5679 5678 5679 5679 5680 5680 5679 5676 5674 5671 5669 5666 5663 5660 5655 5652 5652 5649 5649 5646 5642 5638 5635 5632 5628 5627 5627 5624 5622 5619 5616 5613 5610 5606 5603 5600 5596 5593 5589 5585
5665 5666 5666 5666 5666 5666 5666 5667 5667 5667 5665 5661 5659 5656 5653 5651 5648 5644 5638 5634 5634 5632 5631 5628 5625 5621 5618 5616 5615 5613 5610 5607 5605 5603 5597 5593 5590 5586 5583 5580 5576 5573 5569